AAL5389 KORF-KDCA

Flight info

Callsign AAL5389
Flight time 0h 30m
Altitude 21000
Route NUTIY1 THHMP CAPSS4
Aircraft A319/M-SDE3FGHIRWY/LB1

Departure

Time 2026-05-01 09:26
Airport Norfolk International Airport (KORF)

Arrival

Time 2026-05-01 09:56
Airport Ronald Reagan Washington National Airport (KDCA)
Time Latitude Longitude Altitude Speed Heading
2026-05-01 09:09 36.89734 -76.20227 35 ft 0 kts 218°
2026-05-01 09:21 36.89745 -76.20217 35 ft 3 kts 218°
2026-05-01 09:21 36.89760 -76.20202 33 ft 3 kts 218°
2026-05-01 09:21 36.89790 -76.20173 33 ft 3 kts 173°
2026-05-01 09:22 36.89803 -76.20184 33 ft 0 kts 107°
2026-05-01 09:23 36.89799 -76.20169 33 ft 3 kts 111°
2026-05-01 09:24 36.89761 -76.20058 34 ft 11 kts 114°
2026-05-01 09:24 36.89706 -76.19984 38 ft 14 kts 176°
2026-05-01 09:24 36.89514 -76.20153 40 ft 12 kts 218°
2026-05-01 09:25 36.89448 -76.20000 41 ft 20 kts 40°
2026-05-01 09:25 36.90488 -76.19018 228 ft 150 kts 29°
2026-05-01 09:26 36.91481 -76.19146 948 ft 158 kts 324°
2026-05-01 09:26 36.92417 -76.22067 2271 ft 211 kts 287°
2026-05-01 09:26 36.92719 -76.23952 3014 ft 230 kts 286°
2026-05-01 09:27 36.93366 -76.28188 5136 ft 253 kts 281°
2026-05-01 09:27 36.93683 -76.30356 6502 ft 254 kts 279°
2026-05-01 09:27 36.93999 -76.32534 7817 ft 253 kts 279°
2026-05-01 09:28 36.94311 -76.34670 9214 ft 251 kts 279°
2026-05-01 09:28 36.94601 -76.36813 10567 ft 249 kts 276°
2026-05-01 09:28 36.94641 -76.39010 11544 ft 262 kts 270°
2026-05-01 09:28 36.94627 -76.41403 12098 ft 287 kts 270°
2026-05-01 09:29 36.94590 -76.46707 13646 ft 315 kts 270°
2026-05-01 09:29 36.94574 -76.49433 14573 ft 320 kts 270°
2026-05-01 09:30 36.95201 -76.54992 16399 ft 330 kts 288°
2026-05-01 09:30 36.96285 -76.57562 17226 ft 339 kts 300°
2026-05-01 09:30 36.99334 -76.62188 18700 ft 349 kts 304°
2026-05-01 09:31 37.00375 -76.63738 19140 ft 351 kts 304°
2026-05-01 09:31 37.02470 -76.66863 20047 ft 354 kts 303°
2026-05-01 09:31 37.05125 -76.70844 20921 ft 365 kts 303°
2026-05-01 09:32 37.06776 -76.73339 21033 ft 380 kts 303°
2026-05-01 09:32 37.10270 -76.78622 21054 ft 406 kts 303°
2026-05-01 09:32 37.12094 -76.81363 21066 ft 411 kts 304°
2026-05-01 09:33 37.13932 -76.84111 21067 ft 412 kts 304°
2026-05-01 09:33 37.15779 -76.86867 21070 ft 412 kts 304°
2026-05-01 09:33 37.19428 -76.92347 21062 ft 412 kts 303°
2026-05-01 09:34 37.21256 -76.95112 21062 ft 412 kts 303°
2026-05-01 09:34 37.23082 -76.97881 21066 ft 412 kts 303°
2026-05-01 09:34 37.26736 -77.03426 21060 ft 411 kts 304°
2026-05-01 09:35 37.28563 -77.06197 21060 ft 411 kts 304°
2026-05-01 09:35 37.32222 -77.11752 21066 ft 412 kts 304°
2026-05-01 09:35 37.34155 -77.14370 21065 ft 418 kts 310°
2026-05-01 09:36 37.36291 -77.16857 21069 ft 418 kts 311°
2026-05-01 09:36 37.38429 -77.19348 21072 ft 418 kts 311°
2026-05-01 09:36 37.40565 -77.21842 21076 ft 418 kts 311°
2026-05-01 09:36 37.42695 -77.24333 21086 ft 418 kts 311°
2026-05-01 09:37 37.44827 -77.26829 21085 ft 418 kts 311°
2026-05-01 09:37 37.49773 -77.30877 21079 ft 439 kts 333°
2026-05-01 09:37 37.52776 -77.31695 21108 ft 454 kts 347°
2026-05-01 09:38 37.59199 -77.31563 21100 ft 461 kts 354°
2026-05-01 09:38 37.62406 -77.31437 21091 ft 460 kts 354°
2026-05-01 09:38 37.65545 -77.31307 21082 ft 438 kts 354°
2026-05-01 09:39 37.71465 -77.31075 21090 ft 423 kts 353°
2026-05-01 09:39 37.74419 -77.30982 21090 ft 422 kts 353°
2026-05-01 09:39 37.77354 -77.30896 21055 ft 419 kts 353°
2026-05-01 09:40 37.80229 -77.30801 20884 ft 405 kts 353°
2026-05-01 09:40 37.85654 -77.30587 20627 ft 379 kts 353°
2026-05-01 09:40 37.88246 -77.30487 20500 ft 366 kts 352°
2026-05-01 09:41 37.90749 -77.30396 20370 ft 353 kts 352°
2026-05-01 09:41 37.95566 -77.30232 19678 ft 340 kts 352°
2026-05-01 09:41 37.97928 -77.30158 19231 ft 337 kts 352°
2026-05-01 09:42 38.00269 -77.30084 18769 ft 334 kts 352°
2026-05-01 09:42 38.02564 -77.30007 18321 ft 331 kts 352°
2026-05-01 09:42 38.07145 -77.29767 17315 ft 331 kts 359°
2026-05-01 09:43 38.11629 -77.28435 16364 ft 331 kts
2026-05-01 09:43 38.13859 -77.27734 15920 ft 328 kts
2026-05-01 09:43 38.16070 -77.27036 15478 ft 325 kts
2026-05-01 09:44 38.20428 -77.25662 14643 ft 319 kts
2026-05-01 09:44 38.22551 -77.24991 14231 ft 317 kts
2026-05-01 09:44 38.24715 -77.24307 13804 ft 314 kts
2026-05-01 09:45 38.26802 -77.23646 13340 ft 312 kts
2026-05-01 09:45 38.30978 -77.22321 12363 ft 306 kts
2026-05-01 09:45 38.33019 -77.21543 11787 ft 308 kts 17°
2026-05-01 09:46 38.34870 -77.20119 11227 ft 314 kts 34°
2026-05-01 09:46 38.36507 -77.18285 10657 ft 312 kts 37°
2026-05-01 09:46 38.38124 -77.16455 10100 ft 309 kts 37°
2026-05-01 09:46 38.39729 -77.14644 9516 ft 306 kts 37°
2026-05-01 09:47 38.41312 -77.12854 8955 ft 301 kts 37°
2026-05-01 09:47 38.42865 -77.11098 8434 ft 294 kts 37°
2026-05-01 09:47 38.44366 -77.09401 7889 ft 288 kts 37°
2026-05-01 09:47 38.45858 -77.07714 7314 ft 284 kts 37°
2026-05-01 09:48 38.47330 -77.06052 6753 ft 279 kts 37°
2026-05-01 09:48 38.48778 -77.04419 6170 ft 275 kts 37°
2026-05-01 09:48 38.50208 -77.02841 5627 ft 267 kts 32°
2026-05-01 09:48 38.51787 -77.01726 5282 ft 257 kts 17°
2026-05-01 09:49 38.53493 -77.01190 5155 ft 250 kts
2026-05-01 09:49 38.55220 -77.01178 4956 ft 247 kts 354°
2026-05-01 09:49 38.56924 -77.01295 4707 ft 242 kts 355°
2026-05-01 09:49 38.58580 -77.01407 4465 ft 233 kts 355°
2026-05-01 09:50 38.60173 -77.01515 4230 ft 225 kts 355°
2026-05-01 09:50 38.61700 -77.01619 4009 ft 218 kts 355°
2026-05-01 09:50 38.63196 -77.01720 3790 ft 212 kts 355°
2026-05-01 09:50 38.64654 -77.01819 3571 ft 207 kts 355°
2026-05-01 09:51 38.66079 -77.01917 3356 ft 202 kts 355°
2026-05-01 09:51 38.67466 -77.02015 3130 ft 198 kts 355°
2026-05-01 09:51 38.68821 -77.02117 2928 ft 193 kts 355°
2026-05-01 09:51 38.70152 -77.02246 2728 ft 189 kts 354°
2026-05-01 09:52 38.71452 -77.02381 2545 ft 184 kts 354°
2026-05-01 09:52 38.72693 -77.02512 2342 ft 172 kts 354°
2026-05-01 09:52 38.73820 -77.02630 2191 ft 154 kts 354°
2026-05-01 09:52 38.74839 -77.02745 2051 ft 137 kts 353°
2026-05-01 09:53 38.75746 -77.02859 1932 ft 127 kts 353°
2026-05-01 09:53 38.76612 -77.02955 1800 ft 124 kts 354°
2026-05-01 09:53 38.77469 -77.02902 1669 ft 123 kts
2026-05-01 09:53 38.78309 -77.02706 1506 ft 122 kts
2026-05-01 09:54 38.79138 -77.02510 1286 ft 122 kts
2026-05-01 09:54 38.79977 -77.02292 1062 ft 122 kts
2026-05-01 09:54 38.80814 -77.02057 859 ft 124 kts 11°
2026-05-01 09:54 38.81659 -77.01805 727 ft 125 kts 11°
2026-05-01 09:55 38.82514 -77.01589 703 ft 126 kts
2026-05-01 09:55 38.83380 -77.01781 479 ft 127 kts 341°
2026-05-01 09:55 38.84117 -77.02376 306 ft 126 kts 322°
2026-05-01 09:55 38.84812 -77.03059 119 ft 126 kts 323°
2026-05-01 09:56 38.85458 -77.03686 24 ft 91 kts 323°
2026-05-01 09:56 38.85718 -77.03945 26 ft 5 kts 291°
2026-05-01 09:56 38.85712 -77.03953 29 ft 2 kts 238°
2026-05-01 09:56 38.85696 -77.04007 29 ft 9 kts 247°
2026-05-01 09:57 38.85634 -77.04040 26 ft 12 kts 174°
2026-05-01 09:57 38.85563 -77.04041 24 ft 10 kts 210°
2026-05-01 09:57 38.85587 -77.04100 24 ft 9 kts 301°
2026-05-01 09:57 38.85600 -77.04143 24 ft 1 kts 293°
2026-05-01 09:58 38.85601 -77.04144 24 ft 0 kts 293°